Gallup, NM

11:02 PM MDT on May 23, 2017 (GMT -0600)
Gallup Municipal

Weather History for KGUP - April, 2013

Change the Weather History Date:

Sunday, April 28, 2013

  Actual Average Record
Temperature  
Mean Temperature 50 °F -  
Max Temperature 77 °F 65 °F 83 °F (1992)
Min Temperature 25 °F 28 °F 18 °F (1991)
Degree Days  
Heating Degree Days 15    
Moisture  
Dew Point 3 °F    
Average Humidity 16    
Maximum Humidity 36    
Minimum Humidity 5    
Precipitation  
Precipitation 0.00 in - - ()
Sea Level Pressure  
Sea Level Pressure 29.89 in    
Wind  
Wind Speed 3 mph (NNW)    
Max Wind Speed 14 mph    
Max Gust Speed 18 mph    
Visibility 10 miles    
Events      
Averages and records for this station are not official NWS values.
T = Trace of Precipitation, MM = Missing Value Source: NWS Daily Summary

Daily Weather History Graph

Daily Weather History Graph

Search for Another Location

Airport or City:

Trip Planner

Search our weather history database for the weather conditions in past years. The results will help you decide how hot, cold, wet, or windy it might be!

Date:

Astronomy

Apr. 28, 2013 Rise Set
Actual Time 6:26 AM MDT 7:59 PM MDT
Civil Twilight 5:59 AM MDT 8:26 PM MDT
Nautical Twilight 5:26 AM MDT 8:59 PM MDT
Astronomical Twilight 4:52 AM MDT 9:33 PM MDT
Moon 11:29 PM MDT (4/28) 8:50 AM MDT (4/28)
Length of Visible Light 14h 27m
Length of Day
13h 32m
Waning Gibbous, 88% of the Moon is Illuminated
Apr 28
Waning Gibbous
May 2
Last Quarter
May 9
New
May 17
First Quarter
May 24
Full

Hourly Weather History & Observations

Time (MDT) Temp. Windchill Dew Point Humidity Pressure Visibility Wind Dir Wind Speed Gust Speed Precip Events Conditions
12:53 AM 33.1 °F - 3.0 °F 28% 30.00 in 10.0 mi Calm Calm - N/A   Clear
1:53 AM 30.0 °F 26.5 °F 1.9 °F 30% 30.01 in 10.0 mi East 3.5 mph - N/A   Clear
2:53 AM 34.0 °F 28.8 °F 3.9 °F 28% 29.95 in 10.0 mi ENE 5.8 mph - N/A   Clear
3:53 AM 32.0 °F - 3.9 °F 31% 29.96 in 10.0 mi Calm Calm - N/A   Clear
4:53 AM 25.0 °F 19.3 °F 1.0 °F 36% 30.01 in 10.0 mi East 4.6 mph - N/A   Clear
5:53 AM 28.9 °F - 3.9 °F 35% 29.99 in 10.0 mi Calm Calm - N/A   Clear
7:53 AM 37.9 °F - 7.0 °F 28% 30.00 in 10.0 mi Calm Calm - N/A   Clear
8:53 AM 46.0 °F - 8.1 °F 21% 30.00 in 10.0 mi Calm Calm - N/A   Clear
9:53 AM 57.0 °F - 10.0 °F 15% 29.95 in 10.0 mi Calm Calm - N/A   Clear
10:53 AM 64.9 °F - 8.1 °F 11% 29.93 in 10.0 mi Calm Calm - N/A   Clear
11:53 AM 68.0 °F - 3.0 °F 8% 29.93 in 10.0 mi Variable 3.5 mph - N/A   Clear
12:53 PM 71.1 °F - 1.9 °F 7% 29.92 in 10.0 mi North 8.1 mph - N/A   Clear
1:53 PM 72.0 °F - -2.9 °F 5% 29.91 in 10.0 mi North 6.9 mph - N/A   Clear
2:53 PM 73.0 °F - -0.9 °F 5% 29.84 in 10.0 mi East 5.8 mph - N/A   Clear
3:53 PM 75.9 °F - 3.9 °F 6% 29.79 in 10.0 mi South 11.5 mph - N/A   Clear
4:53 PM 75.9 °F - 5.0 °F 6% 29.81 in 10.0 mi WSW 5.8 mph 16.1 mph N/A   Clear
5:53 PM 75.0 °F - 6.1 °F 7% 29.79 in 10.0 mi SW 11.5 mph 18.4 mph N/A   Clear
6:53 PM 73.0 °F - 3.9 °F 7% 29.82 in 10.0 mi West 13.8 mph 18.4 mph N/A   Clear
7:53 PM 68.0 °F - 1.9 °F 7% 29.78 in 10.0 mi WNW 8.1 mph - N/A   Clear
8:53 PM 61.0 °F - 1.9 °F 9% 29.78 in 10.0 mi Calm Calm - N/A   Clear
9:53 PM 51.1 °F - 1.9 °F 13% 29.81 in 10.0 mi WNW 4.6 mph - N/A   Clear
10:53 PM 48.0 °F - 1.9 °F 15% 29.76 in 10.0 mi Calm Calm - N/A   Clear
11:53 PM 41.0 °F - 1.9 °F 20% 29.79 in 10.0 mi Calm Calm - N/A   Clear